#timestamp,LO_Frequency,Hit,StdDev 
1629158415.3,286046999.5,N
1629158435.2,286046997.9,N
1629158455.9,286046995.3,Y
1629158475.7,286046999.2,P
1629158495.6,286046995.4,P
1629158515.4,286046995.4,N
1629158535.2,286046995.2,N
1629158555.1,286046998.0,N
1629158556.0,286046998.0,N
1629158575.8,286046995.0,N
1629158595.7,286046995.5,N
1629158615.5,286046995.7,N
1629158635.3,286046995.8,N
1629158655.2,286046995.9,N
1629158675.0,286046995.5,N
1629158675.9,286046995.5,Y
1629158695.8,286046996.8,P
1629158715.6,286046999.5,P
1629158735.4,286046998.8,N
1629158755.3,286046998.6,N
1629158775.1,286047001.0,N
1629158795.8,286047000.8,N
1629158815.7,286047000.9,N
1629158835.5,286047001.1,N
1629158855.4,286047000.1,N
1629158875.2,286047001.0,N
1629158895.0,286046999.9,N
1629158895.9,286046999.9,N
1629158915.8,286046999.9,N
1629158935.6,286047002.4,N
1629158955.4,286047002.0,N
1629158975.3,286047001.4,N
1629158995.1,286047001.8,N
1629159015.9,286047004.3,N
1629159035.7,286047004.2,N
1629159055.5,286047004.2,N
1629159075.4,286047003.7,N
1629159095.2,286047003.5,N
1629159115.0,286047003.3,N
1629159115.9,286047003.3,N
1629159135.8,286047005.4,N
1629159155.6,286047005.4,N
1629159175.5,286047005.1,N
1629159195.3,286047005.2,N
1629159215.1,286047005.3,N
1629159235.9,286047005.4,N
1629159255.7,286047004.8,N
1629159275.5,286047003.3,N
1629159295.4,286047004.9,N
1629159315.2,286047005.0,N
1629159335.1,286047005.2,N
1629159336.0,286047005.2,N
1629159355.8,286047007.6,Y
1629159375.6,286047004.0,P
1629159395.5,286047003.9,P
1629159415.3,286047003.6,P
1629159435.2,286047003.7,Y
1629159455.9,286046998.7,P
1629159475.7,286047001.0,N
1629159495.6,286046998.6,N
1629159515.4,286046998.1,N
1629159535.2,286046998.5,N
1629159555.1,286046998.9,N
1629159556.0,286046998.9,N
1629159575.8,286046998.1,N
1629159595.7,286046998.9,N
1629159615.5,286046999.2,N
1629159665.4,286046999.2,E
1629159675.3,286046996.5,N
1629159695.1,286046999.3,P
1629159715.8,286046999.3,N
1629159735.7,286046999.1,N
1629159755.5,286046996.9,N
1629159775.4,286046997.0,N
1629159795.2,286046999.2,N
1629159815.0,286046997.3,N
1629159815.9,286046997.3,N
1629159835.8,286046997.5,N
1629159855.6,286046995.3,Y
1629159875.5,286046999.6,P
1629159895.3,286046999.2,N
1629159915.1,286046998.3,N
1629159935.9,286046998.9,N
1629159955.7,286046998.3,N
1629159975.5,286046999.3,N
1629159995.4,286046998.7,N
1629160015.2,286046998.8,N
1629160035.0,286046998.9,N
1629160036.0,286046998.9,N
1629160055.8,286046998.7,N
1629160075.6,286046996.9,Y
1629160095.5,286046999.1,P
1629160115.3,286046999.0,P
1629160135.2,286046998.8,P
1629160155.9,286047000.5,Y
1629160175.7,286047002.4,P
1629160195.6,286047002.5,N
1629160215.4,286047001.8,N
1629160235.2,286047002.0,N
1629160255.1,286047001.6,N
1629160256.0,286047001.6,N
1629160275.8,286047002.5,N
1629160295.7,286047001.7,N
1629160315.5,286047001.5,N
1629160335.3,286047001.3,N
1629160355.2,286047001.3,N
1629160375.0,286047004.0,Y
1629160375.9,286047004.0,P
1629160395.8,286046999.8,N
1629160415.6,286047000.2,N
1629160435.4,286046999.7,N
1629160455.3,286047000.5,N
1629160475.1,286047002.3,N
1629160495.9,286046999.9,N
1629160515.7,286047000.1,N
1629160535.5,286047002.1,N
1629160555.4,286047002.3,N
1629160575.2,286047002.2,N
1629160595.0,286047002.7,N
1629160595.9,286047002.7,N
1629160615.8,286047002.5,N
1629160635.6,286047002.8,N
1629160655.5,286047002.3,N
1629160675.3,286046999.9,N
1629160695.1,286047000.2,N
1629160715.9,286047000.3,N
1629160735.7,286046999.9,N
1629160755.5,286047000.0,N
1629160775.4,286046999.8,N
1629160795.2,286047000.1,N
1629160815.1,286047000.2,N
1629160816.0,286047000.2,N
1629160835.8,286047002.5,N
1629160855.6,286047000.2,N
1629160875.5,286047002.8,N
1629160895.3,286047002.3,N
1629160915.1,286047000.0,N
1629160935.9,286047001.1,N
1629160955.7,286047000.6,N
1629160975.6,286047000.9,N
1629160995.4,286046998.1,N
1629161015.2,286047000.8,N
1629161035.1,286047000.6,N
1629161036.0,286047000.6,N
1629161055.8,286047000.5,N
1629161075.7,286047001.0,N
1629161095.5,286047000.6,N
1629161115.3,286047000.4,N
1629161135.2,286047000.8,N
1629161155.9,286046998.6,N
1629161175.7,286046998.6,N
1629161195.6,286047000.9,N
1629161215.4,286047000.6,N
1629161235.2,286047000.8,N
1629161255.1,286047001.2,N
1629161256.0,286047001.2,N
1629161275.8,286047000.8,N
1629161295.7,286047000.3,N
1629161315.5,286046998.5,N
1629161335.3,286047001.1,N
1629161355.2,286047000.8,N
1629161375.0,286047000.6,N
1629161375.9,286047000.6,N
1629161395.8,286047000.2,N
1629161415.6,286047002.4,N
1629161435.4,286046999.7,N
1629161455.3,286047000.3,N
1629161475.1,286046999.8,N
1629161495.8,286046999.8,N
1629161515.7,286047000.4,N
1629161535.5,286047002.5,N
1629161555.4,286047002.2,N
1629161575.2,286047002.3,N
1629161595.0,286047002.8,N
1629161595.9,286047002.8,N
1629161615.8,286047000.4,N
1629161635.6,286047000.3,N
1629161655.4,286046999.7,N
1629161675.3,286047000.0,N
1629161695.1,286047000.6,N
1629161715.9,286047000.2,N
1629161735.7,286047000.2,N
1629161755.5,286047000.3,N
1629161775.4,286047000.2,N
1629161795.2,286047000.5,N
1629161815.0,286046998.5,N
1629161815.9,286046998.5,N
1629161835.8,286047000.8,N
1629161855.6,286047000.7,N
1629161875.5,286047001.1,N
1629161895.3,286047000.4,N
1629161915.1,286046999.8,N
1629161935.9,286046999.7,N
1629161955.7,286046999.7,N
1629161975.5,286047000.7,N
1629161995.4,286047000.9,N
